When you browse on this site, cookies collect data to enhance your experience and personalize the content and advertising you see.
Visit our Privacy Policy to learn more. By continuing to use the site, you agree to this use of cookies and data.
  • In Austria
  • List of Countries
  • For 7 days
  • Water Temperature
  • Weather Map
  • News
  • Weather Widgets
  • user-avatar
    Login

    Hourly Weather Vinukonda

    Today, 26 May, Tuesday

    Time Temperature Precipitation Wind Pressure Humidity
    00:00 +32°C° 0 mm 5 mps 747 mmHg 84%
    01:00 +30°C° 0 mm 4 mps 747 mmHg 85%
    02:00 +30°C° 0 mm 4 mps 747 mmHg 86%
    03:00 +30°C° 0 mm 4 mps 747 mmHg 87%
    04:00 +29°C° 0 mm 3 mps 747 mmHg 89%
    05:00 +29°C° 0 mm 2 mps 747 mmHg 88%
    06:00 +31°C° 0 mm 2 mps 747 mmHg 78%
    07:00 +34°C° 0 mm 2 mps 748 mmHg 67%
    08:00 +35°C° 0 mm 3 mps 748 mmHg 57%
    09:00 +38°C° 0 mm 2 mps 748 mmHg 48%
    10:00 +40°C° 0 mm 2 mps 748 mmHg 39%
    11:00 +42°C° 0 mm 2 mps 748 mmHg 32%
    12:00 +45°C° 0 mm 2 mps 747 mmHg 28%
    13:00 +46°C° 0 mm 2 mps 746 mmHg 24%
    14:00 +47°C° 0 mm 2 mps 745 mmHg 20%
    15:00 +45°C° 0 mm 4 mps 745 mmHg 30%
    16:00 +42°C° 0 mm 5 mps 745 mmHg 40%
    17:00 +40°C° 0 mm 7 mps 745 mmHg 49%
    18:00 +38°C° 0 mm 6 mps 746 mmHg 58%
    19:00 +35°C° 0 mm 5 mps 746 mmHg 67%
    20:00 +33°C° 0 mm 4 mps 747 mmHg 76%
    21:00 +33°C° 0 mm 4 mps 747 mmHg 77%
    22:00 +32°C° 0 mm 4 mps 747 mmHg 78%
    23:00 +32°C° 0 mm 4 mps 748 mmHg 79%

    Tomorrow, 27 May, Wednesday

    Time Temperature Precipitation Wind Pressure Humidity
    00:00 +32°C° 0 mm 4 mps 747 mmHg 79%
    01:00 +32°C° 0 mm 4 mps 747 mmHg 78%
    02:00 +30°C° 0 mm 4 mps 746 mmHg 78%
    03:00 +30°C° 0 mm 3 mps 746 mmHg 78%
    04:00 +30°C° 0 mm 3 mps 746 mmHg 79%
    05:00 +30°C° 0 mm 2 mps 747 mmHg 79%
    06:00 +31°C° 0 mm 2 mps 747 mmHg 70%
    07:00 +34°C° 0 mm 2 mps 747 mmHg 60%
    08:00 +36°C° 0 mm 2 mps 748 mmHg 51%
    09:00 +39°C° 0 mm 2 mps 748 mmHg 43%
    10:00 +41°C° 0 mm 2 mps 747 mmHg 35%
    11:00 +45°C° 0 mm 2 mps 747 mmHg 28%
    12:00 +45°C° 0 mm 2 mps 746 mmHg 25%
    13:00 +46°C° 0 mm 3 mps 745 mmHg 23%
    14:00 +47°C° 0 mm 3 mps 744 mmHg 21%
    15:00 +45°C° 0 mm 4 mps 744 mmHg 29%
    16:00 +44°C° 0 mm 6 mps 744 mmHg 37%
    17:00 +40°C° 0 mm 7 mps 744 mmHg 45%
    18:00 +38°C° 0 mm 6 mps 744 mmHg 53%
    19:00 +35°C° 0 mm 5 mps 745 mmHg 61%
    20:00 +34°C° 0 mm 4 mps 746 mmHg 69%
    21:00 +33°C° 0 mm 5 mps 746 mmHg 71%
    22:00 +33°C° 0 mm 5 mps 746 mmHg 73%
    23:00 +32°C° 0 mm 5 mps 746 mmHg 75%

    Day after tomorrow, 28 May, Thursday

    Time Temperature Precipitation Wind Pressure Humidity
    00:00 +32°C° 0 mm 5 mps 746 mmHg 76%
    01:00 +32°C° 0 mm 4 mps 746 mmHg 77%
    02:00 +30°C° 0 mm 4 mps 745 mmHg 78%
    03:00 +30°C° 0 mm 3 mps 745 mmHg 80%
    04:00 +30°C° 0 mm 2 mps 745 mmHg 81%
    05:00 +29°C° 0 mm 1 mps 745 mmHg 82%
    06:00 +32°C° 0 mm 2 mps 746 mmHg 70%
    07:00 +35°C° 0 mm 2 mps 746 mmHg 58%
    08:00 +38°C° 0 mm 3 mps 747 mmHg 46%
    09:00 +42°C° 0 mm 3 mps 746 mmHg 37%
    10:00 +45°C° 0 mm 2 mps 746 mmHg 28%
    11:00 +47°C° 0 mm 2 mps 745 mmHg 19%
    12:00 +48°C° 0 mm 3 mps 745 mmHg 17%
    13:00 +50°C° 0 mm 3 mps 744 mmHg 16%
    14:00 +51°C° 0 mm 3 mps 743 mmHg 14%
    15:00 +48°C° 0 mm 4 mps 743 mmHg 22%
    16:00 +46°C° 0 mm 5 mps 742 mmHg 31%
    17:00 +43°C° 0 mm 7 mps 742 mmHg 39%
    18:00 +40°C° 0 mm 6 mps 743 mmHg 49%
    19:00 +36°C° 0 mm 6 mps 743 mmHg 59%
    20:00 +34°C° 0 mm 6 mps 744 mmHg 69%
    21:00 +34°C° 0 mm 6 mps 744 mmHg 67%
    22:00 +34°C° 0 mm 5 mps 745 mmHg 65%
    23:00 +34°C° 0 mm 5 mps 745 mmHg 63%

    29 May, Friday

    Time Temperature Precipitation Wind Pressure Humidity
    00:00 +34°C° 0 mm 5 mps 745 mmHg 62%
    01:00 +34°C° 0 mm 4 mps 745 mmHg 60%
    02:00 +34°C° 0 mm 4 mps 744 mmHg 59%
    03:00 +35°C° 0 mm 3 mps 744 mmHg 57%
    04:00 +35°C° 0 mm 3 mps 745 mmHg 55%
    05:00 +35°C° 0 mm 3 mps 745 mmHg 54%
    06:00 +37°C° 0 mm 4 mps 745 mmHg 45%
    07:00 +40°C° 0 mm 5 mps 746 mmHg 37%
    08:00 +42°C° 0 mm 6 mps 746 mmHg 28%
    09:00 +45°C° 0 mm 6 mps 746 mmHg 24%
    10:00 +47°C° 0 mm 6 mps 746 mmHg 21%
    11:00 +48°C° 0 mm 6 mps 745 mmHg 17%
    12:00 +49°C° 0 mm 5 mps 744 mmHg 16%
    13:00 +49°C° 0 mm 4 mps 744 mmHg 15%
    14:00 +50°C° 0 mm 3 mps 743 mmHg 15%
    15:00 +48°C° 0 mm 3 mps 743 mmHg 17%
    16:00 +48°C° 0 mm 4 mps 742 mmHg 19%
    17:00 +47°C° 0 mm 4 mps 742 mmHg 21%
    18:00 +43°C° 0 mm 4 mps 742 mmHg 34%
    19:00 +39°C° 0 mm 5 mps 743 mmHg 47%
    20:00 +35°C° 0 mm 5 mps 744 mmHg 59%
    21:00 +35°C° 0 mm 5 mps 744 mmHg 62%
    22:00 +34°C° 0 mm 5 mps 745 mmHg 65%
    23:00 +34°C° 0 mm 5 mps 745 mmHg 68%

    30 May, Saturday

    Time Temperature Precipitation Wind Pressure Humidity
    00:00 +33°C° 0 mm 5 mps 745 mmHg 71%
    01:00 +33°C° 0 mm 5 mps 745 mmHg 74%
    02:00 +33°C° 0 mm 5 mps 745 mmHg 77%
    03:00 +33°C° 0 mm 5 mps 745 mmHg 79%
    04:00 +32°C° 0 mm 5 mps 745 mmHg 81%
    05:00 +32°C° 0 mm 4 mps 746 mmHg 83%
    06:00 +34°C° 0 mm 3 mps 746 mmHg 74%
    07:00 +35°C° 0 mm 2 mps 746 mmHg 65%
    08:00 +35°C° 0 mm 1 mps 747 mmHg 56%
    09:00 +39°C° 0 mm 1 mps 747 mmHg 48%
    10:00 +41°C° 0 mm 1 mps 747 mmHg 39%
    11:00 +44°C° 0 mm 1 mps 746 mmHg 30%
    12:00 +46°C° 0 mm 2 mps 746 mmHg 27%
    13:00 +47°C° 0 mm 2 mps 745 mmHg 23%
    14:00 +48°C° 0 mm 3 mps 744 mmHg 19%
    15:00 +46°C° 0.1 mm 3 mps 744 mmHg 26%
    16:00 +43°C° 0.1 mm 3 mps 744 mmHg 33%
    17:00 +41°C° 0.1 mm 4 mps 744 mmHg 40%
    18:00 +38°C° 0.4 mm 4 mps 745 mmHg 48%
    19:00 +37°C° 0.4 mm 4 mps 746 mmHg 56%
    20:00 +35°C° 0.4 mm 4 mps 747 mmHg 65%
    21:00 +34°C° 0 mm 4 mps 747 mmHg 68%
    22:00 +34°C° 0 mm 4 mps 747 mmHg 71%
    23:00 +33°C° 0 mm 4 mps 748 mmHg 74%

    31 May, Sunday

    Time Temperature Precipitation Wind Pressure Humidity
    00:00 +33°C° 0 mm 4 mps 747 mmHg 76%
    01:00 +31°C° 0 mm 3 mps 747 mmHg 79%
    02:00 +31°C° 0 mm 3 mps 747 mmHg 81%
    03:00 +31°C° 0 mm 3 mps 747 mmHg 83%
    04:00 +30°C° 0 mm 3 mps 747 mmHg 84%
    05:00 +30°C° 0 mm 3 mps 747 mmHg 86%
    06:00 +32°C° 0 mm 2 mps 748 mmHg 76%
    07:00 +35°C° 0 mm 2 mps 748 mmHg 66%
    08:00 +37°C° 0 mm 2 mps 749 mmHg 56%
    09:00 +39°C° 0 mm 1 mps 749 mmHg 47%
    10:00 +42°C° 0 mm 1 mps 748 mmHg 37%
    11:00 +44°C° 0 mm 1 mps 748 mmHg 28%
    12:00 +45°C° 0 mm 1 mps 747 mmHg 25%
    13:00 +47°C° 0 mm 2 mps 746 mmHg 23%
    14:00 +47°C° 0 mm 2 mps 745 mmHg 21%
    15:00 +43°C° 1.5 mm 3 mps 746 mmHg 35%
    16:00 +38°C° 1.5 mm 4 mps 746 mmHg 48%
    17:00 +33°C° 1.5 mm 4 mps 746 mmHg 62%
    18:00 +33°C° 3.2 mm 4 mps 747 mmHg 63%
    19:00 +31°C° 3.2 mm 3 mps 748 mmHg 63%
    20:00 +31°C° 3.2 mm 3 mps 749 mmHg 64%
    21:00 +31°C° 0.1 mm 2 mps 749 mmHg 61%
    22:00 +32°C° 0.1 mm 1 mps 749 mmHg 59%
    23:00 +30°C° 0.1 mm 0 mps 749 mmHg 56%
    Show more